| time (UTC) | temp F | wind direction | speed MPH | gust MPH | rain 1hr in | rain 24hr in | rain mn in | humidity % | barometer mb |
| 20260509085546 | 51 | 202 | 4.0 | 12.0 | 0.00 | 0.00 | 0.00 | 83 | 1002.4 |
| 20260509085043 | 51 | 206 | 5.0 | 11.0 | 0.00 | 0.00 | 0.00 | 83 | 1002.3 |
| 20260509084600 | 51 | 173 | 5.0 | 11.0 | 0.00 | 0.00 | 0.00 | 83 | 1002.4 |
| 20260509084044 | 51 | 167 | 4.0 | 10.0 | 0.00 | 0.00 | 0.00 | 82 | 1002.4 |
| 20260509083545 | 51 | 178 | 5.0 | 11.0 | 0.00 | 0.00 | 0.00 | 81 | 1002.5 |
| 20260509083105 | 51 | 165 | 5.0 | 11.0 | 0.00 | 0.00 | 0.00 | 81 | 1002.6 |
| 20260509082544 | 51 | 174 | 5.0 | 10.0 | 0.00 | 0.00 | 0.00 | 80 | 1002.6 |
| 20260509082045 | 51 | 176 | 5.0 | 9.0 | 0.00 | 0.00 | 0.00 | 80 | 1002.7 |
| 20260509081553 | 51 | 176 | 4.0 | 8.0 | 0.00 | 0.00 | 0.00 | 80 | 1002.8 |
| 20260509081044 | 51 | 200 | 4.0 | 8.0 | 0.00 | 0.00 | 0.00 | 79 | 1002.9 |
| 20260509080543 | 51 | 167 | 3.0 | 7.0 | 0.00 | 0.00 | 0.00 | 79 | 1002.9 |
| 20260509080053 | 51 | 188 | 3.0 | 10.0 | 0.00 | 0.00 | 0.00 | 78 | 1003.0 |
| 20260509075543 | 51 | 201 | 3.0 | 10.0 | 0.00 | 0.00 | 0.00 | 78 | 1003.1 |
| 20260509075047 | 51 | 170 | 3.0 | 7.0 | 0.00 | 0.00 | 0.00 | 77 | 1003.0 |
| 20260509074610 | 51 | 219 | 3.0 | 8.0 | 0.00 | 0.00 | 0.00 | 77 | 1003.1 |
| 20260509074046 | 51 | 188 | 4.0 | 9.0 | 0.00 | 0.00 | 0.00 | 76 | 1003.1 |
| 20260509073549 | 51 | 195 | 4.0 | 11.0 | 0.00 | 0.00 | 0.00 | 76 | 1003.3 |
| 20260509073105 | 51 | 229 | 5.0 | 11.0 | 0.00 | 0.00 | 0.00 | 75 | 1003.3 |
| 20260509072546 | 51 | 220 | 7.0 | 12.0 | 0.00 | 0.00 | 0.00 | 74 | 1003.3 |
| 20260509072048 | 51 | 192 | 7.0 | 12.0 | 0.00 | 0.00 | 0.00 | 73 | 1003.4 |
| 20260509071556 | 51 | 207 | 8.0 | 12.0 | 0.00 | 0.00 | 0.00 | 72 | 1003.5 |
| 20260509071044 | 51 | 209 | 7.0 | 11.0 | 0.00 | 0.00 | 0.00 | 71 | 1003.7 |
| 20260509070546 | 51 | 202 | 7.0 | 11.0 | 0.00 | 0.00 | 0.00 | 70 | 1003.8 |
| 20260509070055 | 51 | 227 | 8.0 | 11.0 | 0.00 | 0.00 | 0.00 | 68 | 1003.8 |
| 20260509065548 | 51 | 234 | 7.0 | 12.0 | 0.00 | 0.00 | 0.00 | 66 | 1003.8 |
| 20260509065048 | 51 | 192 | 8.0 | 12.0 | 0.00 | 0.00 | 0.00 | 65 | 1003.8 |
| 20260509064550 | 51 | 209 | 7.0 | 10.0 | 0.00 | 0.00 | 0.00 | 63 | 1003.7 |
| 20260509064047 | 51 | 178 | 5.0 | 10.0 | 0.00 | 0.00 | 0.00 | 61 | 1003.8 |
| 20260509063546 | 51 | 215 | 5.0 | 8.0 | 0.00 | 0.00 | 0.00 | 59 | 1003.8 |
| 20260509063059 | 51 | 190 | 5.0 | 8.0 | 0.00 | 0.00 | 0.00 | 56 | 1004.0 |
| 20260509062545 | 51 | 205 | 4.0 | 9.0 | 0.00 | 0.00 | 0.00 | 53 | 1004.1 |
| 20260509062046 | 52 | 210 | 5.0 | 11.0 | 0.00 | 0.00 | 0.00 | 51 | 1004.2 |
| 20260509061556 | 52 | 182 | 6.0 | 11.0 | 0.00 | 0.00 | 0.00 | 49 | 1004.2 |
| 20260509061047 | 52 | 200 | 5.0 | 11.0 | 0.00 | 0.00 | 0.00 | 47 | 1004.2 |
| 20260509060547 | 52 | 204 | 4.0 | 11.0 | 0.00 | 0.00 | 0.00 | 44 | 1004.4 |
| 20260509060117 | 52 | 192 | 4.0 | 11.0 | 0.00 | 0.00 | 0.00 | 43 | 1004.3 |
| 20260509055545 | 52 | 163 | 7.0 | 11.0 | 0.00 | 0.00 | 0.00 | 42 | 1004.3 |
| 20260509055048 | 52 | 173 | 6.0 | 10.0 | 0.00 | 0.00 | 0.00 | 42 | 1004.4 |
| 20260509054553 | 52 | 186 | 5.0 | 10.0 | 0.00 | 0.00 | 0.00 | 41 | 1004.5 |
| 20260509054048 | 53 | 188 | 6.0 | 9.0 | 0.00 | 0.00 | 0.00 | 41 | 1004.6 |
| 20260509053548 | 52 | 173 | 4.0 | 9.0 | 0.00 | 0.00 | 0.00 | 41 | 1004.6 |
| 20260509053109 | 52 | 179 | 6.0 | 11.0 | 0.00 | 0.00 | 0.00 | 40 | 1004.7 |
| 20260509052544 | 52 | 189 | 7.0 | 11.0 | 0.00 | 0.00 | 0.00 | 40 | 1004.6 |
| 20260509052047 | 52 | 161 | 6.0 | 10.0 | 0.00 | 0.00 | 0.00 | 40 | 1004.7 |
| 20260509051606 | 52 | 167 | 6.0 | 11.0 | 0.00 | 0.00 | 0.00 | 40 | 1004.5 |
| 20260509051045 | 52 | 163 | 7.0 | 11.0 | 0.00 | 0.00 | 0.00 | 40 | 1004.5 |
| 20260509050550 | 52 | 170 | 7.0 | 11.0 | 0.00 | 0.00 | 0.00 | 40 | 1004.4 |
| 20260509045547 | 52 | 177 | 8.0 | 11.0 | 0.00 | 0.00 | 0.00 | 40 | 1004.5 |
| 20260509045045 | 52 | 178 | 8.0 | 11.0 | 0.00 | 0.00 | 0.00 | 39 | 1004.5 |
| 20260509044607 | 52 | 172 | 7.0 | 10.0 | 0.00 | 0.00 | 0.00 | 39 | 1004.6 |
| 20260509044046 | 52 | 161 | 7.0 | 11.0 | 0.00 | 0.00 | 0.00 | 38 | 1004.7 |
| 20260509043546 | 52 | 168 | 7.0 | 11.0 | 0.00 | 0.00 | 0.00 | 38 | 1004.7 |
| 20260509043100 | 53 | 153 | 8.0 | 11.0 | 0.00 | 0.00 | 0.00 | 38 | 1004.6 |
| 20260509042548 | 52 | 168 | 7.0 | 11.0 | 0.00 | 0.00 | 0.00 | 38 | 1004.7 |
| 20260509042045 | 52 | 138 | 7.0 | 10.0 | 0.00 | 0.00 | 0.00 | 37 | 1004.6 |
| 20260509041555 | 52 | 154 | 7.0 | 9.0 | 0.00 | 0.00 | 0.00 | 37 | 1004.7 |
| 20260509041046 | 52 | 169 | 7.0 | 9.0 | 0.00 | 0.00 | 0.00 | 37 | 1004.8 |
| 20260509040545 | 52 | 167 | 7.0 | 9.0 | 0.00 | 0.00 | 0.00 | 36 | 1004.9 |
| 20260509040106 | 52 | 168 | 6.0 | 9.0 | 0.00 | 0.00 | 0.00 | 36 | 1004.8 |
| 20260509035546 | 52 | 159 | 5.0 | 7.0 | 0.00 | 0.00 | 0.00 | 36 | 1005.0 |
| 20260509035046 | 52 | 156 | 6.0 | 8.0 | 0.00 | 0.00 | 0.00 | 36 | 1005.0 |
| 20260509034552 | 53 | 152 | 6.0 | 9.0 | 0.00 | 0.00 | 0.00 | 35 | 1005.2 |
| 20260509034048 | 53 | 163 | 6.0 | 9.0 | 0.00 | 0.00 | 0.00 | 34 | 1005.2 |
| 20260509033545 | 53 | 173 | 5.0 | 9.0 | 0.00 | 0.00 | 0.00 | 34 | 1005.4 |
| 20260509033111 | 53 | 174 | 6.0 | 9.0 | 0.00 | 0.00 | 0.00 | 34 | 1005.4 |
| 20260509032546 | 53 | 153 | 6.0 | 10.0 | 0.00 | 0.00 | 0.00 | 34 | 1005.5 |
| 20260509032045 | 53 | 165 | 6.0 | 10.0 | 0.00 | 0.00 | 0.00 | 33 | 1005.4 |
| 20260509031554 | 53 | 174 | 6.0 | 9.0 | 0.00 | 0.00 | 0.00 | 32 | 1005.4 |
| 20260509031045 | 53 | 169 | 6.0 | 10.0 | 0.00 | 0.00 | 0.00 | 32 | 1005.4 |
| 20260509030545 | 54 | 169 | 7.0 | 10.0 | 0.00 | 0.00 | 0.00 | 33 | 1005.5 |
| 20260509030055 | 54 | 165 | 7.0 | 10.0 | 0.00 | 0.00 | 0.00 | 32 | 1005.6 |
| 20260509025544 | 54 | 159 | 7.0 | 10.0 | 0.00 | 0.00 | 0.00 | 31 | 1005.6 |
| 20260509025046 | 54 | 165 | 7.0 | 10.0 | 0.00 | 0.00 | 0.00 | 31 | 1005.7 |
| 20260509024601 | 54 | 152 | 7.0 | 9.0 | 0.00 | 0.00 | 0.00 | 30 | 1005.7 |
| 20260509024047 | 54 | 155 | 7.0 | 9.0 | 0.00 | 0.00 | 0.00 | 31 | 1005.8 |
| 20260509023544 | 54 | 156 | 5.0 | 9.0 | 0.00 | 0.00 | 0.00 | 31 | 1005.9 |
| 20260509023054 | 54 | 174 | 6.0 | 9.0 | 0.00 | 0.00 | 0.00 | 30 | 1006.0 |
| 20260509022545 | 54 | 153 | 4.0 | 6.0 | 0.00 | 0.00 | 0.00 | 32 | 1006.0 |
| 20260509022045 | 54 | 185 | 3.0 | 7.0 | 0.00 | 0.00 | 0.00 | 31 | 1006.2 |
| 20260509021552 | 54 | 182 | 3.0 | 7.0 | 0.00 | 0.00 | 0.00 | 30 | 1006.2 |
| 20260509021046 | 54 | 217 | 3.0 | 7.0 | 0.00 | 0.00 | 0.00 | 32 | 1006.2 |
| 20260509020545 | 55 | 182 | 4.0 | 7.0 | 0.00 | 0.00 | 0.00 | 31 | 1006.2 |
| 20260509020111 | 54 | 202 | 4.0 | 8.0 | 0.00 | 0.00 | 0.00 | 31 | 1006.1 |
| 20260509015548 | 55 | 165 | 4.0 | 8.0 | 0.00 | 0.00 | 0.00 | 31 | 1006.0 |
| 20260509015047 | 55 | 169 | 5.0 | 7.0 | 0.00 | 0.00 | 0.00 | 30 | 1006.0 |
| 20260509014554 | 55 | 180 | 5.0 | 7.0 | 0.00 | 0.00 | 0.00 | 30 | 1006.1 |
| 20260509014047 | 55 | 185 | 5.0 | 7.0 | 0.00 | 0.00 | 0.00 | 29 | 1006.0 |
| 20260509013548 | 55 | 169 | 5.0 | 7.0 | 0.00 | 0.00 | 0.00 | 29 | 1006.0 |
| 20260509013055 | 56 | 165 | 5.0 | 7.0 | 0.00 | 0.00 | 0.00 | 29 | 1006.0 |
| 20260509012548 | 56 | 160 | 5.0 | 7.0 | 0.00 | 0.00 | 0.00 | 29 | 1005.8 |
| 20260509012047 | 56 | 167 | 5.0 | 7.0 | 0.00 | 0.00 | 0.00 | 29 | 1005.9 |
| 20260509011601 | 56 | 168 | 5.0 | 7.0 | 0.00 | 0.00 | 0.00 | 28 | 1005.9 |
| 20260509011047 | 56 | 165 | 5.0 | 6.0 | 0.00 | 0.00 | 0.00 | 29 | 1005.9 |
| 20260509010550 | 57 | 155 | 5.0 | 6.0 | 0.00 | 0.00 | 0.00 | 29 | 1005.9 |
| 20260509010056 | 57 | 171 | 5.0 | 7.0 | 0.00 | 0.00 | 0.00 | 28 | 1006.0 |
| 20260509005548 | 57 | 173 | 4.0 | 7.0 | 0.00 | 0.00 | 0.00 | 28 | 1006.0 |
| 20260509005048 | 57 | 173 | 4.0 | 6.0 | 0.00 | 0.00 | 0.00 | 28 | 1006.0 |
| 20260509004554 | 58 | 172 | 4.0 | 5.0 | 0.00 | 0.00 | 0.00 | 27 | 1006.0 |
| 20260509004047 | 58 | 168 | 4.0 | 5.0 | 0.00 | 0.00 | 0.00 | 27 | 1005.9 |
| 20260509003548 | 58 | 173 | 3.0 | 5.0 | 0.00 | 0.00 | 0.00 | 26 | 1006.0 |
| 20260509003056 | 58 | 180 | 2.0 | 4.0 | 0.00 | 0.00 | 0.00 | 25 | 1006.0 |
| 20260509002546 | 58 | 180 | 2.0 | 4.0 | 0.00 | 0.00 | 0.00 | 26 | 1006.0 |
| 20260509002046 | 58 | 180 | 2.0 | 5.0 | 0.00 | 0.00 | 0.00 | 27 | 1006.1 |
| 20260509001548 | 58 | 180 | 1.0 | 7.0 | 0.00 | 0.00 | 0.00 | 26 | 1006.2 |
| 20260509001047 | 59 | 201 | 3.0 | 7.0 | 0.00 | 0.00 | 0.00 | 27 | 1006.2 |
| 20260509000550 | 59 | 173 | 3.0 | 7.0 | 0.00 | 0.00 | 0.00 | 28 | 1006.2 |
| 20260509000049 | 59 | 219 | 4.0 | 7.0 | 0.00 | 0.00 | 0.00 | 26 | 1006.3 |
| 20260508235548 | 59 | 213 | 6.0 | 7.0 | 0.00 | 0.00 | 0.00 | 27 | 1006.4 |
| 20260508235047 | 59 | 179 | 5.0 | 10.0 | 0.00 | 0.00 | 0.00 | 29 | 1006.5 |
| 20260508234557 | 59 | 245 | 6.0 | 10.0 | 0.00 | 0.00 | 0.00 | 32 | 1006.6 |
| 20260508234047 | 60 | 222 | 6.0 | 8.0 | 0.00 | 0.00 | 0.00 | 28 | 1006.7 |
| 20260508233547 | 59 | 233 | 6.0 | 9.0 | 0.00 | 0.00 | 0.00 | 30 | 1006.7 |
| 20260508233104 | 59 | 200 | 3.0 | 10.0 | 0.00 | 0.00 | 0.00 | 31 | 1006.6 |
| 20260508232547 | 59 | 252 | 7.0 | 11.0 | 0.00 | 0.00 | 0.00 | 31 | 1006.8 |
| 20260508232047 | 60 | 252 | 7.0 | 11.0 | 0.00 | 0.00 | 0.00 | 29 | 1006.9 |
| 20260508231551 | 60 | 246 | 8.0 | 13.0 | 0.00 | 0.00 | 0.00 | 30 | 1006.9 |
| 20260508231048 | 60 | 240 | 9.0 | 13.0 | 0.00 | 0.00 | 0.00 | 32 | 1007.0 |
| 20260508230550 | 60 | 240 | 9.0 | 13.0 | 0.00 | 0.00 | 0.00 | 30 | 1007.0 |
| 20260508230052 | 60 | 237 | 8.0 | 13.0 | 0.00 | 0.00 | 0.00 | 31 | 1006.9 |
| 20260508225547 | 60 | 229 | 9.0 | 12.0 | 0.00 | 0.00 | 0.00 | 30 | 1006.9 |
| 20260508225046 | 61 | 270 | 9.0 | 12.0 | 0.00 | 0.00 | 0.00 | 30 | 1006.8 |
| 20260508224553 | 61 | 243 | 5.0 | 13.0 | 0.00 | 0.00 | 0.00 | 32 | 1006.9 |
| 20260508224048 | 61 | 257 | 8.0 | 14.0 | 0.00 | 0.00 | 0.00 | 30 | 1006.9 |
| 20260508223548 | 61 | 236 | 6.0 | 14.0 | 0.00 | 0.00 | 0.00 | 32 | 1006.8 |
| 20260508223053 | 61 | 229 | 7.0 | 12.0 | 0.00 | 0.00 | 0.00 | 31 | 1006.8 |
| 20260508222549 | 61 | 244 | 9.0 | 12.0 | 0.00 | 0.00 | 0.00 | 30 | 1007.0 |
| 20260508222049 | 62 | 268 | 9.0 | 12.0 | 0.00 | 0.00 | 0.00 | 30 | 1007.0 |
| 20260508221548 | 62 | 289 | 5.0 | 11.0 | 0.00 | 0.00 | 0.00 | 31 | 1007.0 |
| 20260508221048 | 62 | 295 | 6.0 | 11.0 | 0.00 | 0.00 | 0.00 | 33 | 1007.1 |
| 20260508220546 | 62 | 297 | 4.0 | 11.0 | 0.00 | 0.00 | 0.00 | 33 | 1007.2 |
| 20260508220055 | 61 | 344 | 7.0 | 11.0 | 0.00 | 0.00 | 0.00 | 29 | 1007.1 |
| 20260508215547 | 62 | 302 | 9.0 | 11.0 | 0.00 | 0.00 | 0.00 | 29 | 1007.1 |
| 20260508215048 | 62 | 267 | 6.0 | 13.0 | 0.00 | 0.00 | 0.00 | 30 | 1007.0 |
| 20260508214555 | 62 | 269 | 8.0 | 13.0 | 0.00 | 0.00 | 0.00 | 27 | 1007.0 |
| 20260508214049 | 62 | 315 | 11.0 | 13.0 | 0.00 | 0.00 | 0.00 | 30 | 1007.0 |
| 20260508213547 | 62 | 352 | 6.0 | 14.0 | 0.00 | 0.00 | 0.00 | 31 | 1007.0 |
| 20260508213055 | 62 | 277 | 7.0 | 14.0 | 0.00 | 0.00 | 0.00 | 31 | 1007.1 |
| 20260508212547 | 62 | 304 | 12.0 | 14.0 | 0.00 | 0.00 | 0.00 | 34 | 1007.1 |
| 20260508212049 | 62 | 285 | 7.0 | 17.0 | 0.00 | 0.00 | 0.00 | 31 | 1007.2 |
| 20260508211550 | 62 | 276 | 8.0 | 17.0 | 0.00 | 0.00 | 0.00 | 28 | 1007.2 |
| 20260508211048 | 61 | 309 | 4.0 | 15.0 | 0.00 | 0.00 | 0.00 | 30 | 1007.3 |
| 20260508210552 | 62 | 314 | 6.0 | 13.0 | 0.00 | 0.00 | 0.00 | 32 | 1007.3 |
| 20260508210051 | 62 | 296 | 8.0 | 13.0 | 0.00 | 0.00 | 0.00 | 30 | 1007.2 |
| 20260508205549 | 61 | 309 | 9.0 | 13.0 | 0.00 | 0.00 | 0.00 | 31 | 1007.3 |
| 20260508205048 | 61 | 289 | 6.0 | 14.0 | 0.00 | 0.00 | 0.00 | 33 | 1007.3 |
| 20260508204556 | 62 | 288 | 10.0 | 14.0 | 0.00 | 0.00 | 0.00 | 32 | 1007.4 |
| 20260508204050 | 62 | 302 | 10.0 | 14.0 | 0.00 | 0.00 | 0.00 | 29 | 1007.3 |
| 20260508203547 | 61 | 292 | 3.0 | 10.0 | 0.00 | 0.00 | 0.00 | 31 | 1007.4 |
| 20260508203053 | 61 | 251 | 7.0 | 13.0 | 0.00 | 0.00 | 0.00 | 28 | 1007.4 |
| 20260508202552 | 62 | 338 | 9.0 | 13.0 | 0.00 | 0.00 | 0.00 | 31 | 1007.5 |
| 20260508202047 | 62 | 275 | 5.0 | 14.0 | 0.00 | 0.00 | 0.00 | 34 | 1007.6 |
| 20260508201553 | 61 | 223 | 3.0 | 14.0 | 0.00 | 0.00 | 0.00 | 37 | 1007.6 |
| 20260508201047 | 61 | 279 | 8.0 | 15.0 | 0.00 | 0.00 | 0.00 | 30 | 1007.6 |
| 20260508200547 | 61 | 330 | 8.0 | 15.0 | 0.00 | 0.00 | 0.00 | 27 | 1007.8 |
| 20260508200057 | 62 | 281 | 10.0 | 15.0 | 0.00 | 0.00 | 0.00 | 32 | 1007.9 |
| 20260508195547 | 61 | 297 | 3.0 | 9.0 | 0.00 | 0.00 | 0.00 | 30 | 1007.9 |
| 20260508195048 | 61 | 234 | 5.0 | 13.0 | 0.00 | 0.00 | 0.00 | 32 | 1007.9 |
| 20260508194605 | 61 | 239 | 8.0 | 13.0 | 0.00 | 0.00 | 0.00 | 29 | 1007.8 |
| 20260508194049 | 61 | 235 | 6.0 | 13.0 | 0.00 | 0.00 | 0.00 | 30 | 1008.0 |
| 20260508193548 | 61 | 259 | 7.0 | 14.0 | 0.00 | 0.00 | 0.00 | 31 | 1008.0 |
| 20260508193117 | 60 | 232 | 5.0 | 14.0 | 0.00 | 0.00 | 0.00 | 32 | 1008.0 |
| 20260508192548 | 61 | 271 | 10.0 | 14.0 | 0.00 | 0.00 | 0.00 | 29 | 1008.2 |
| 20260508192050 | 60 | 263 | 4.0 | 11.0 | 0.00 | 0.00 | 0.00 | 34 | 1008.2 |
| 20260508191606 | 60 | 242 | 6.0 | 14.0 | 0.00 | 0.00 | 0.00 | 33 | 1008.2 |
| 20260508191043 | 60 | 242 | 10.0 | 14.0 | 0.00 | 0.00 | 0.00 | 38 | 1008.2 |
| 20260508190546 | 61 | 255 | 6.0 | 12.0 | 0.00 | 0.00 | 0.00 | 30 | 1008.2 |
| 20260508190110 | 60 | 223 | 7.0 | 13.0 | 0.00 | 0.00 | 0.00 | 33 | 1008.2 |
| 20260508185545 | 60 | 215 | 10.0 | 16.0 | 0.00 | 0.00 | 0.00 | 33 | 1008.3 |
| 20260508185045 | 60 | 276 | 9.0 | 18.0 | 0.00 | 0.00 | 0.00 | 30 | 1008.4 |
| 20260508184618 | 61 | 321 | 12.0 | 18.0 | 0.00 | 0.00 | 0.00 | 33 | 1008.4 |
| 20260508184047 | 60 | 243 | 7.0 | 12.0 | 0.00 | 0.00 | 0.00 | 30 | 1008.5 |
| 20260508183545 | 60 | 248 | 7.0 | 13.0 | 0.00 | 0.00 | 0.00 | 28 | 1008.6 |
| 20260508183102 | 60 | 219 | 8.0 | 14.0 | 0.00 | 0.00 | 0.00 | 38 | 1008.7 |
| 20260508182545 | 60 | 266 | 8.0 | 14.0 | 0.00 | 0.00 | 0.00 | 31 | 1008.5 |
| 20260508182042 | 60 | 280 | 7.0 | 12.0 | 0.00 | 0.00 | 0.00 | 29 | 1008.4 |
| 20260508181605 | 60 | 238 | 7.0 | 12.0 | 0.00 | 0.00 | 0.00 | 31 | 1008.7 |
| 20260508181042 | 60 | 314 | 7.0 | 12.0 | 0.00 | 0.00 | 0.00 | 36 | 1008.6 |
| 20260508180546 | 59 | 241 | 9.0 | 15.0 | 0.00 | 0.00 | 0.00 | 30 | 1008.6 |
| 20260508180105 | 60 | 242 | 7.0 | 15.0 | 0.00 | 0.00 | 0.00 | 31 | 1008.6 |
| 20260508175545 | 60 | 275 | 4.0 | 15.0 | 0.00 | 0.00 | 0.00 | 33 | 1008.7 |
| 20260508175048 | 61 | 311 | 8.0 | 15.0 | 0.00 | 0.00 | 0.00 | 29 | 1008.9 |
| 20260508174551 | 61 | 333 | 9.0 | 13.0 | 0.00 | 0.00 | 0.00 | 38 | 1009.0 |
| 20260508174046 | 61 | 303 | 9.0 | 13.0 | 0.00 | 0.00 | 0.00 | 37 | 1009.0 |
| 20260508173546 | 60 | 258 | 5.0 | 13.0 | 0.00 | 0.00 | 0.00 | 32 | 1009.0 |
| 20260508173057 | 60 | 282 | 9.0 | 15.0 | 0.00 | 0.00 | 0.00 | 28 | 1009.0 |
| 20260508172548 | 60 | 319 | 7.0 | 15.0 | 0.00 | 0.00 | 0.00 | 37 | 1008.9 |
| 20260508172046 | 60 | 281 | 7.0 | 17.0 | 0.00 | 0.00 | 0.00 | 30 | 1009.0 |
| 20260508171557 | 60 | 272 | 8.0 | 17.0 | 0.00 | 0.00 | 0.00 | 33 | 1009.0 |
| 20260508171045 | 60 | 259 | 12.0 | 17.0 | 0.00 | 0.00 | 0.00 | 31 | 1009.0 |
| 20260508170542 | 60 | 254 | 5.0 | 12.0 | 0.00 | 0.00 | 0.00 | 31 | 1009.1 |
| 20260508170110 | 60 | 228 | 6.0 | 12.0 | 0.00 | 0.00 | 0.00 | 35 | 1009.3 |
| 20260508165546 | 59 | 227 | 8.0 | 12.0 | 0.00 | 0.00 | 0.00 | 38 | 1009.4 |
| 20260508165042 | 59 | 194 | 8.0 | 12.0 | 0.00 | 0.00 | 0.00 | 35 | 1009.5 |
| 20260508164553 | 59 | 246 | 3.0 | 10.0 | 0.00 | 0.00 | 0.00 | 43 | 1009.7 |
| 20260508164046 | 58 | 268 | 6.0 | 13.0 | 0.00 | 0.00 | 0.00 | 33 | 1009.6 |
| 20260508163549 | 58 | 226 | 7.0 | 13.0 | 0.00 | 0.00 | 0.00 | 36 | 1009.8 |
| 20260508163106 | 58 | 244 | 7.0 | 14.0 | 0.00 | 0.00 | 0.00 | 41 | 1009.9 |
| 20260508162546 | 57 | 254 | 9.0 | 14.0 | 0.00 | 0.00 | 0.00 | 38 | 1010.1 |
| 20260508162049 | 57 | 180 | 7.0 | 12.0 | 0.00 | 0.00 | 0.00 | 37 | 1010.1 |
| 20260508161559 | 58 | 229 | 7.0 | 12.0 | 0.00 | 0.00 | 0.00 | 41 | 1010.2 |
| 20260508161047 | 58 | 238 | 7.0 | 16.0 | 0.00 | 0.00 | 0.00 | 40 | 1010.1 |
| 20260508160548 | 58 | 282 | 2.0 | 16.0 | 0.00 | 0.00 | 0.00 | 38 | 1010.2 |
| 20260508160057 | 58 | 203 | 9.0 | 16.0 | 0.00 | 0.00 | 0.00 | 41 | 1010.3 |
| 20260508155548 | 57 | 279 | 7.0 | 13.0 | 0.00 | 0.00 | 0.00 | 43 | 1010.1 |
| 20260508155048 | 57 | 253 | 8.0 | 13.0 | 0.00 | 0.00 | 0.00 | 43 | 1010.1 |
| 20260508154549 | 57 | 169 | 8.0 | 12.0 | 0.00 | 0.00 | 0.00 | 42 | 1010.1 |
| 20260508154048 | 57 | 160 | 6.0 | 12.0 | 0.00 | 0.00 | 0.00 | 39 | 1010.3 |
| 20260508153549 | 57 | 209 | 5.0 | 14.0 | 0.00 | 0.00 | 0.00 | 42 | 1010.1 |
| 20260508153106 | 57 | 226 | 10.0 | 14.0 | 0.00 | 0.00 | 0.00 | 42 | 1010.3 |
| 20260508152550 | 57 | 250 | 2.0 | 12.0 | 0.00 | 0.00 | 0.00 | 48 | 1010.2 |
| 20260508152048 | 56 | 306 | 8.0 | 12.0 | 0.00 | 0.00 | 0.00 | 41 | 1010.3 |
| 20260508151553 | 57 | 254 | 8.0 | 10.0 | 0.00 | 0.00 | 0.00 | 44 | 1010.3 |
| 20260508151047 | 56 | 227 | 4.0 | 10.0 | 0.00 | 0.00 | 0.00 | 48 | 1010.2 |
| 20260508150549 | 55 | 193 | 5.0 | 11.0 | 0.00 | 0.00 | 0.00 | 42 | 1010.4 |
| 20260508150054 | 56 | 190 | 6.0 | 11.0 | 0.00 | 0.00 | 0.00 | 42 | 1010.3 |
| 20260508145550 | 55 | 221 | 4.0 | 14.0 | 0.00 | 0.00 | 0.00 | 48 | 1010.4 |
| 20260508145047 | 55 | 213 | 9.0 | 14.0 | 0.00 | 0.00 | 0.00 | 51 | 1010.4 |
| 20260508144555 | 55 | 195 | 6.0 | 10.0 | 0.00 | 0.00 | 0.00 | 48 | 1010.4 |
| 20260508144048 | 55 | 242 | 3.0 | 9.0 | 0.00 | 0.00 | 0.00 | 51 | 1010.3 |
| 20260508143548 | 55 | 200 | 7.0 | 9.0 | 0.00 | 0.00 | 0.00 | 48 | 1010.4 |
| 20260508143116 | 55 | 238 | 5.0 | 8.0 | 0.00 | 0.00 | 0.00 | 55 | 1010.3 |
| 20260508142548 | 55 | 217 | 5.0 | 14.0 | 0.00 | 0.00 | 0.00 | 57 | 1010.4 |
| 20260508142048 | 54 | 192 | 5.0 | 14.0 | 0.00 | 0.00 | 0.00 | 56 | 1010.5 |
| 20260508141559 | 54 | 205 | 5.0 | 9.0 | 0.00 | 0.00 | 0.00 | 53 | 1010.5 |
| 20260508141047 | 54 | 167 | 4.0 | 7.0 | 0.00 | 0.00 | 0.00 | 62 | 1010.6 |
| 20260508140550 | 53 | 189 | 4.0 | 7.0 | 0.00 | 0.00 | 0.00 | 56 | 1010.6 |
| 20260508140115 | 53 | 246 | 4.0 | 7.0 | 0.00 | 0.00 | 0.00 | 62 | 1010.5 |
| 20260508135548 | 53 | 223 | 5.0 | 7.0 | 0.00 | 0.00 | 0.00 | 58 | 1010.6 |
| 20260508135048 | 52 | 212 | 5.0 | 7.0 | 0.00 | 0.00 | 0.00 | 67 | 1010.6 |
| 20260508134556 | 52 | 223 | 4.0 | 7.0 | 0.00 | 0.00 | 0.00 | 64 | 1010.6 |
| 20260508134047 | 51 | 175 | 4.0 | 9.0 | 0.00 | 0.00 | 0.00 | 64 | 1010.6 |
| 20260508133548 | 51 | 190 | 5.0 | 9.0 | 0.00 | 0.00 | 0.00 | 65 | 1010.6 |
| 20260508133053 | 51 | 196 | 4.0 | 6.0 | 0.00 | 0.00 | 0.00 | 67 | 1010.7 |
| 20260508132547 | 50 | 206 | 3.0 | 6.0 | 0.00 | 0.00 | 0.00 | 67 | 1010.7 |
| 20260508132048 | 50 | 205 | 2.0 | 3.0 | 0.00 | 0.00 | 0.00 | 70 | 1010.6 |
| 20260508131558 | 49 | 175 | 2.0 | 3.0 | 0.00 | 0.00 | 0.00 | 70 | 1010.7 |
| 20260508131047 | 49 | 182 | 2.0 | 5.0 | 0.00 | 0.00 | 0.00 | 73 | 1010.7 |
| 20260508130551 | 48 | 210 | 2.0 | 5.0 | 0.00 | 0.00 | 0.00 | 74 | 1010.8 |
| 20260508130051 | 48 | 213 | 3.0 | 5.0 | 0.00 | 0.00 | 0.00 | 74 | 1010.7 |
| 20260508125548 | 47 | 224 | 3.0 | 5.0 | 0.00 | 0.00 | 0.00 | 73 | 1010.9 |
| 20260508125048 | 47 | 212 | 4.0 | 5.0 | 0.00 | 0.00 | 0.00 | 73 | 1010.8 |
| 20260508124557 | 46 | 192 | 4.0 | 5.0 | 0.00 | 0.00 | 0.00 | 73 | 1010.8 |
| 20260508124048 | 46 | 216 | 3.0 | 4.0 | 0.00 | 0.00 | 0.00 | 74 | 1010.9 |
| 20260508123548 | 45 | 181 | 1.0 | 4.0 | 0.00 | 0.00 | 0.00 | 74 | 1011.0 |
| 20260508123055 | 45 | 181 | 2.0 | 5.0 | 0.00 | 0.00 | 0.00 | 73 | 1010.9 |
| 20260508122547 | 44 | 228 | 3.0 | 5.0 | 0.00 | 0.00 | 0.00 | 73 | 1010.9 |
| 20260508122047 | 44 | 211 | 3.0 | 5.0 | 0.00 | 0.00 | 0.00 | 73 | 1010.8 |
| 20260508121556 | 44 | 200 | 3.0 | 5.0 | 0.00 | 0.00 | 0.00 | 73 | 1010.7 |
| 20260508121047 | 44 | 165 | 3.0 | 5.0 | 0.00 | 0.00 | 0.00 | 74 | 1010.6 |
| 20260508120548 | 43 | 167 | 4.0 | 5.0 | 0.00 | 0.00 | 0.00 | 75 | 1010.6 |
| 20260508120111 | 43 | 158 | 3.0 | 4.0 | 0.00 | 0.00 | 0.00 | 75 | 1010.5 |
| 20260508115550 | 42 | 186 | 2.0 | 4.0 | 0.00 | 0.00 | 0.00 | 78 | 1010.4 |
| 20260508115052 | 42 | 157 | 1.0 | 5.0 | 0.00 | 0.00 | 0.00 | 81 | 1010.4 |
| 20260508114602 | 41 | 157 | 3.0 | 5.0 | 0.00 | 0.00 | 0.00 | 79 | 1010.4 |
| 20260508114048 | 41 | 151 | 3.0 | 5.0 | 0.00 | 0.00 | 0.00 | 80 | 1010.3 |
| 20260508113548 | 40 | 146 | 3.0 | 4.0 | 0.00 | 0.00 | 0.00 | 81 | 1010.3 |
| 20260508113053 | 40 | 142 | 2.0 | 3.0 | 0.00 | 0.00 | 0.00 | 82 | 1010.3 |
| 20260508112548 | 39 | 151 | 2.0 | 2.0 | 0.00 | 0.00 | 0.00 | 85 | 1010.3 |
| 20260508112047 | 38 | 130 | 2.0 | 3.0 | 0.00 | 0.00 | 0.00 | 86 | 1010.3 |
| 20260508111552 | 37 | 132 | 1.0 | 3.0 | 0.00 | 0.00 | 0.00 | 87 | 1010.2 |
| 20260508111048 | 37 | 136 | 1.0 | 4.0 | 0.00 | 0.00 | 0.00 | 88 | 1010.2 |
| 20260508110546 | 36 | 144 | 3.0 | 4.0 | 0.00 | 0.00 | 0.00 | 89 | 1010.2 |
| 20260508105547 | 36 | 155 | 3.0 | 4.0 | 0.00 | 0.00 | 0.00 | 89 | 1010.1 |
| 20260508105047 | 36 | 0 | 0.0 | 0.0 | 0.00 | 0.00 | 0.00 | 89 | 1010.1 |
| 20260508104556 | 36 | 0 | 0.0 | 0.0 | 0.00 | 0.00 | 0.00 | 89 | 1010.1 |
| 20260508104047 | 37 | 0 | 0.0 | 0.0 | 0.00 | 0.00 | 0.00 | 89 | 1010.0 |
| 20260508103547 | 36 | 0 | 0.0 | 0.0 | 0.00 | 0.00 | 0.00 | 90 | 1010.1 |
| 20260508103058 | 36 | 0 | 0.0 | 0.0 | 0.00 | 0.00 | 0.00 | 89 | 1009.8 |
| 20260508102549 | 36 | 0 | 0.0 | 0.0 | 0.00 | 0.00 | 0.00 | 89 | 1009.9 |
| 20260508102048 | 36 | 0 | 0.0 | 0.0 | 0.00 | 0.00 | 0.00 | 88 | 1010.0 |
| 20260508101556 | 36 | 0 | 0.0 | 0.0 | 0.00 | 0.00 | 0.00 | 88 | 1010.0 |
| 20260508101048 | 36 | 0 | 0.0 | 0.0 | 0.00 | 0.00 | 0.00 | 89 | 1010.1 |
| 20260508100552 | 36 | 0 | 0.0 | 0.0 | 0.00 | 0.00 | 0.00 | 88 | 1010.0 |
| 20260508100120 | 36 | 0 | 0.0 | 0.0 | 0.00 | 0.00 | 0.00 | 88 | 1010.1 |
| 20260508095542 | 36 | 0 | 0.0 | 0.0 | 0.00 | 0.00 | 0.00 | 88 | 1010.1 |
| 20260508095046 | 37 | 0 | 0.0 | 0.0 | 0.00 | 0.00 | 0.00 | 87 | 1010.2 |
| 20260508094552 | 37 | 0 | 0.0 | 0.0 | 0.00 | 0.00 | 0.00 | 88 | 1010.2 |
| 20260508094045 | 36 | 0 | 0.0 | 0.0 | 0.00 | 0.00 | 0.00 | 87 | 1010.1 |
| 20260508093544 | 36 | 0 | 0.0 | 0.0 | 0.00 | 0.00 | 0.00 | 87 | 1010.4 |
| 20260508093051 | 36 | 0 | 0.0 | 0.0 | 0.00 | 0.00 | 0.00 | 87 | 1010.4 |
| 20260508092545 | 37 | 0 | 0.0 | 0.0 | 0.00 | 0.00 | 0.00 | 87 | 1010.4 |
| 20260508092048 | 37 | 0 | 0.0 | 0.0 | 0.00 | 0.00 | 0.00 | 87 | 1010.3 |
| 20260508091608 | 37 | 0 | 0.0 | 0.0 | 0.00 | 0.00 | 0.00 | 87 | 1010.4 |
| 20260508091042 | 37 | 0 | 0.0 | 0.0 | 0.00 | 0.00 | 0.00 | 86 | 1010.4 |
| 20260508090548 | 37 | 0 | 0.0 | 0.0 | 0.00 | 0.00 | 0.00 | 85 | 1010.3 |